Regional Weather Roundup
Issued by NWS

Home | Current Version | Previous Version | Text Only | Print | Product List | Glossary Off
Versions: 1 2 3 4 5 6 7 8 9 10 11 12 13 14 15 16 17 18 19 20 21 22 23 24 25 26 27 28 29 30 31 32 33 34 35 36 37 38 39 40 41 42 43 44 45 46 47 48 49 50

000
ASUS43 KOAX 300810
RWRNE

WEATHER ROUNDUP FOR NEBRASKA
NATIONAL WEATHER SERVICE OMAHA NE
300 AM CDT SAT APR 30 2016

NOTES: SATELLITE DATA IS BEING USED TO AUGMENT CLOUD COVER ABOVE
       12000 FEET.
       "FAIR" INDICATES FEW OR NO CLOUDS BELOW 12,000 FEET WITH NO
       SIGNIFICANT WEATHER AND/OR OBSTRUCTIONS TO VISIBILITY.

  * THESE STATIONS DO NOT REPORT WEATHER SUCH AS RAIN...SNOW OR FOG.

NEZ001>004-019>022-054>056-300900-
NEBRASKA PANHANDLE

CITY           SKY/WX    TMP DP  RH WIND       PRES   REMARKS
SCOTTSBLUFF    LGT SNOW  33  31  92 N6        29.93S FOG     WCI  28
ALLIANCE       LGT SNOW  32  32 100 N10       29.88F VSB 1   WCI  24
CHADRON        LGT RAIN  37  35  92 NE14      29.96S WCI  28
KIMBALL        LGT SNOW  31  31  99 N8        29.88F WCI  24
SIDNEY         LGT SNOW  32  31  96 N13       29.88F FOG     WCI  22
$$

NEZ057>060-069>072-079>082-300900-
SOUTHWEST NEBRASKA

CITY           SKY/WX    TMP DP  RH WIND       PRES   REMARKS
NORTH PLATTE   FLURRIES  33  32  96 NE6       29.84F WCI  28
IMPERIAL       LGT SNOW  33  32  96 NW13      29.84F FOG     WCI  24
LEXINGTON      LGT RAIN  39  37  90 NE9       29.82F WCI  33
MCCOOK         LGT RAIN  38  36  92 N10       29.80F FOG     WCI  31
OGALLALA       LGT SNOW  33  32  96 N5        29.86F WCI  29
$$

NEZ005>010-023>029-035>040-094-300900-
NORTH CENTRAL NEBRASKA

CITY           SKY/WX    TMP DP  RH WIND       PRES   REMARKS
VALENTINE      LGT RAIN  40  37  89 NE15      29.93F WCI  32
AINSWORTH      LGT RAIN  40  39  97 NE20      29.90F WCI  30
BROKEN BOW     RAIN      39  37  92 NE9       29.83F FOG     WCI  33
O`NEILL        LGT RAIN  42  39  90 NE21G28   29.88F
ORD            RAIN      40  38  93 E14G22    29.82R FOG     WCI  32
THEDFORD       RAIN      37  37  97 NE12G18   29.87F WCI  30
$$

NEZ041-046>049-061>064-073>077-083>087-300900-
SOUTH CENTRAL NEBRASKA

CITY           SKY/WX    TMP DP  RH WIND       PRES   REMARKS
GRAND ISLAND   HVY RAIN  42  40  92 NE14      29.79F FOG
AURORA         LGT RAIN  43  42  97 NE13      29.79R
HASTINGS       LGT RAIN  42  40  92 NE16      29.76F FOG
HEBRON         RAIN      45  44  97 NE7       29.74F
HOLDREGE       RAIN      41  39  95 N13       29.78F
KEARNEY *      CLOUDY    41  39  93 NE9       29.80F
YORK           HVY RAIN  43  41  93 E13G23    29.78R
$$

NEZ011>018-030>034-042>045-300900-
NORTHEAST NEBRASKA

CITY           SKY/WX    TMP DP  RH WIND       PRES   REMARKS
NORFOLK        CLOUDY    42  38  85 NE17G25   29.83F
ALBION         LGT RAIN  41  39  93 NE22G28   29.80F
BLAIR          LGT RAIN  45  43  93 NE22G31   29.80F
COLUMBUS *     CLOUDY    43  36  75 NE22G31   29.80F
FREMONT        LGT RAIN  44  43  97 NE20      29.81F
TEKAMAH        LGT RAIN  46  42  86 E16       29.85F
WAYNE          LGT RAIN  43  40  89 NE18G25   29.88F
$$

NEZ050>053-065>068-078-088>093-300900-
SOUTHEAST NEBRASKA

CITY           SKY/WX    TMP DP  RH WIND       PRES   REMARKS
LINCOLN        LGT RAIN  46  43  89 E18G28    29.76F FOG
OMAHA EPPLEY   RAIN      46  43  89 NE18G30   29.81F FOG
BEATRICE       RAIN      46  45  96 E17G24    29.72S
FALLS CITY     LGT RAIN  49  47  93 E17       29.70F
NEBRASKA CITY  RAIN      46  46 100 E21G26    29.75F
PLATTSMOUTH    LGT RAIN  46  45  97 NE24G33   29.77F
$$

NEZ044-045-051>053-067-300900-
OMAHA AREA

CITY           SKY/WX    TMP DP  RH WIND       PRES   REMARKS
OMAHA EPPLEY   RAIN      46  43  89 NE18G30   29.81F FOG
BLAIR          LGT RAIN  45  43  93 NE22G31   29.80F
FREMONT        LGT RAIN  44  43  97 NE20      29.81F
MILLARD        RAIN      46  44  92 E5        29.79F
OFFUTT AFB     RAIN      46  46 100 NE13G25   29.79F FOG
PLATTSMOUTH    LGT RAIN  46  45  97 NE24G33   29.77F
WAHOO          RAIN      45  43  93 NE20G31   29.77F
$$



USA.gov is the U.S. government's official web portal to all federal, state and local government web resources and services.